Location: Dunedin
(45.8900°S, 170.5000°E)
Time: 12:38:08
(UTC+12:00)

ISS - Pass Details

Date: 13 April 2024
Orbit: 409 x 414 km, 51.6° (Epoch: 20 May)

Event Time Altitude Azimuth Distance (km) Brightness Sun altitude
Rises 20:09:04 0° 325° (NW) 2,392 0.4 -22.3°
Reaches altitude 10° 20:11:18 10° 336° (NNW) 1,533 -0.8 -22.7°
Enters shadow 20:11:47 13° 340° (NNW) 1,361 -1.1 -22.8°
